SCP
0 0 0 0 0 0 0 0 0 0 0 0 0 0 0 0 0 0 0 0 0 0 0 0 0 0 0 0 0 0 0 0 0 0 0 0 0 0 0 0 0 0 0 0
0 0 0 0 0 0 0 0 0 0 0 0 0 0 0 0 0 0 0 0 0 0 0 0 0 0 0 0 0 0 0 0 0 0 0 0 0 0 0 0 0 0 0 0
0 0 0 0 0 0 0 0 0 0 0 0 0 0 0 0 0 0 0 0 0 0 0 0 0 0 0 0 0 0 0 0 0 0 0 0 0 0 0 0 0 0 0 0
0 0 0 0 0 0 0 0 0 0 0 0 0 0 0 0 0 0 0 0 0 0 0 0 0 0 0 0 0 0 0 0 0 0 0 0 0 0 0 0 0 0 0 0
0 0 0 0 0 0 0 0 0 0 0 0 0 0 0 0 0 0 0 -0 -0 -0 -0 0 0 0 0 0 0 0 0 0 0 0 0 0 0 0 0 0 0 0 0 0
0 0 0 0 0 0 0 0 0 0 0 0 0 0 0 0 0 0 0 -0 -0 0 0 0 0 0 0 0 0 0 0 0 0 0 0 0 0 0 0 0 0 0 0 0
0 0 0 0 0 0 0 0 0 0 0 0 0 0 -0 0 0 0 0 0 0 0 0 0 0 -0 -0 0 0 0 0 0 0 0 0 0 0 0 0 0 0 0 0 0
0 0 0 0 0 0 0 0 0 0 0 0 0 0 0 0 0 -0 0 0 0 -0 -0 0 0 0 0 0 0 0 0 0 0 0 0 0 0 0 0 0 0 0 0 0
0 0 0 0 0 0 0 0 0 0 0 0 0 0 0 0 0 0 0 -0 -0 -0 -0 -0 -0 0 0 0 0 0 0 0 0 0 0 0 0 0 0 0 0 0 0 0
0 0 0 0 0 0 0 0 0 0 0 0 0 0 0 0 0 0 -0 -0 -0 -0 -0 -0 0 0 0 0 0 0 0 0 0 0 0 0 0 0 0 0 0 0 0 0
0 0 0 0 0 0 0 0 0 0 0 0 0 0 0 0 -0 -0 -0 -0 -0 -0 -0 -0 -0 -0 0 0 0 0 0 0 0 0 0 0 0 0 0 0 0 0 0 0
0 0 0 0 0 0 0 0 0 0 0 0 0 0 0 -0 -0 -0 -0 -0 -0 -0 -0 0 -0 -0 0 0 0 0 0 0 0 0 0 0 0 0 0 0 0 0 0 0
0 0 0 0 0 0 0 0 0 0 0 0 0 0 -0 -0 -0 0 -0 -0 -0 0 0 0 -0 0 0 0 0 0 0 0 0 0 0 0 0 0 0 0 0 0 0 0
0 0 0 0 0 0 0 0 0 0 0 0 -0 -0 -0 -0 -0 0 -0 0 0 0 -0 0 0 0 0 0 0 0 0 0 0 0 0 0 0 0 0 -0 0 0 0 0
0 0 0 0 0 0 0 0 0 0 -0 -0 -0 -0 -0 0 -0 0 0 0 -0 -0 0 0 0 0 0 0 0 0 0 0 0 0 0 0 0 0 0 -0 0 0 0 0
0 0 0 0 0 0 0 0 -0 -0 -0 -0 -0 0 0 0 0 0 0 -0 -0 -0 0 0 0 0 0 0 0 0 0 0 0 0 0 0 0 0 0 0 0 0 0 0
0 0 0 0 0 0 0 -0 -0 -0 -0 -0 0 0 0 0 0 0 -0 -0 -0 -0 0 0 0 0 0 0 0 0 0 0 0 0 0 0 0 0 -0 0 0 0 0 0
0 0 0 0 0 0 -0 -0 -0 -0 -0 0 0 0 0 0 0 -0 -0 -0 -0 -0 0 0 0 0 0 0 0 0 0 0 0 0 0 0 0 -0 -0 0 0 0 0 0
0 0 0 0 -0 -0 -0 -0 -0 -0 0 0 0 0 -0 -0 0 -0 -0 -0 -0 -0 0 0 -0 0 0 0 0 0 0 0 0 0 0 0 0 0 0 0 0 0 0 0
-0 -0 -0 0 0 0 -0 -0 -0 0 0 0 -0 -0 0 0 -0 -0 -0 -0 -0 0 0 0 0 0 0 0 0 0 0 0 0 0 0 0 0 0 0 0 0 0 0 0
0 -0 -0 0 0 0 -0 -0 -0 0 0 0 -0 0 0 -0 -0 -0 -0 0 -0 0 0 0 0 0 0 0 0 0 0 0 0 0 0 0 0 0 0 0 0 0 0 0
0 0 0 0 0 -0 -0 0 0 0 0 0 0 0 0 -0 -0 -0 0 0 0 -0 0 0 0 0 0 0 0 0 0 0 0 0 0 0 0 0 0 0 0 0 0 0
-0 -0 -0 -0 -0 -0 -0 0 0 0 0 -0 0 0 0 0 -0 -0 -0 -0 0 0 0 0 0 0 0 0 0 0 0 0 0 0 0 0 0 0 0 0 0 0 0 0
0 -0 -0 -0 -0 -0 0 0 0 -0 -0 -0 0 0 0 0 -0 -0 -0 -0 -0 0 0 0 0 0 0 0 0 0 0 0 0 0 0 0 0 0 0 0 0 0 0 0
0 0 -0 -0 -0 -0 0 0 0 -0 -0 -0 0 0 0 -0 -0 -0 -0 -0 -0 0 0 0 -0 -0 0 0 0 0 0 0 0 0 0 0 0 0 0 0 0 0 0 0
0 0 0 -0 -0 -0 -0 -0 -0 -0 -0 -0 -0 0 0 -0 -0 -0 -0 -0 0 -0 0 0 0 0 0 0 0 0 0 0 0 0 0 0 0 0 0 0 0 0 0 0
0 0 0 0 -0 -0 -0 -0 -0 -0 -0 -0 -0 -0 0 0 0 -0 -0 -0 -0 -0 0 0 0 -0 0 0 0 0 0 0 0 0 0 0 0 0 0 0 0 0 0 0
Wind_Speed_500mb
5 9 7 11 21 24 20 14 17 15 30 16 19 23 43 47 36 15 32 26 20 21 18 16 16 15 21 26 29 31 35 38 42 43 50 60 65 71 74 74 74 72 71 66
5 13 16 19 27 29 32 30 30 32 41 25 24 9 30 35 39 37 35 33 33 34 34 36 40 45 50 54 58 63 67 71 71 72 74 76 76 74 73 73 71 70 73 77
7 6 12 17 14 13 15 21 17 28 7 7 14 14 18 32 31 30 32 38 41 38 36 38 45 51 59 66 69 74 77 78 79 79 78 78 77 74 75 75 74 74 71 67
5 5 5 12 16 19 19 8 8 14 9 9 10 9 23 32 33 32 37 43 35 35 44 53 62 69 72 73 74 72 72 75 77 79 81 78 75 78 78 76 75 77 73 72
4 6 11 13 6 8 7 2 3 3 7 11 25 16 17 32 46 44 46 43 37 48 60 66 68 64 63 66 72 82 94 106 111 103 92 93 94 91 91 87 88 89 88 82
6 7 10 11 8 11 2 6 7 8 7 5 11 7 8 48 57 57 47 43 56 65 65 64 60 64 77 91 107 116 114 98 91 90 89 87 88 82 77 81 80 85 90 88
14 8 10 9 14 3 3 7 27 20 3 11 4 9 38 51 47 38 50 61 60 59 62 62 73 94 107 112 107 92 82 83 77 72 64 63 66 59 66 74 68 61 66 61
4 3 13 10 13 4 6 12 8 4 11 20 29 36 36 40 54 63 53 58 59 60 75 90 99 103 101 90 81 76 73 72 73 69 64 67 65 59 59 60 63 65 63 59
11 10 8 12 7 6 7 8 13 17 21 29 29 39 48 57 60 56 57 53 68 84 97 105 101 82 79 80 74 71 71 70 68 66 63 60 60 58 51 52 51 53 44 45
3 8 16 9 6 10 18 20 19 22 34 28 38 48 55 53 55 47 59 76 88 99 105 101 84 75 73 72 67 64 66 66 63 62 60 56 50 48 49 49 44 38 40 43
8 8 14 11 16 20 14 17 27 38 33 36 41 45 45 41 50 65 79 91 96 93 88 85 78 74 70 63 58 58 61 62 61 60 58 52 44 44 41 42 43 45 47 39
9 12 15 28 20 19 27 36 34 39 29 29 29 28 38 53 68 80 91 91 85 77 77 77 76 73 64 56 51 55 60 60 60 60 58 51 42 41 35 38 42 29 32 20
26 20 20 22 25 20 30 42 19 13 14 27 31 40 54 68 80 84 81 76 71 72 72 73 69 66 57 52 53 55 57 59 54 55 51 49 41 37 38 29 33 32 31 30
13 12 13 20 19 28 13 15 15 18 25 29 41 53 66 76 80 75 70 65 66 67 66 62 62 59 53 52 52 51 49 48 48 47 43 40 40 38 31 33 29 30 33 37
8 6 21 22 10 21 18 19 25 29 34 45 54 63 73 76 73 68 62 61 61 60 58 56 56 55 49 47 45 46 47 39 40 43 39 34 32 30 32 37 21 34 27 26
16 16 2 13 20 21 17 25 29 32 41 51 62 69 68 62 62 60 57 55 57 58 54 53 53 51 46 42 42 43 44 41 48 45 40 31 25 25 28 30 26 26 24 24
12 15 17 20 17 13 18 22 29 37 46 56 62 62 56 55 55 54 52 48 44 43 43 46 52 47 43 37 37 39 44 45 49 44 35 21 15 18 25 30 31 14 20 19
17 18 19 16 15 16 22 29 37 43 47 55 56 50 47 46 50 51 48 43 41 40 41 45 43 41 36 33 33 32 38 39 55 36 20 11 3 12 21 23 26 29 19 20
17 20 19 17 19 25 28 33 40 37 49 56 48 44 41 40 41 41 39 40 47 53 53 47 43 38 36 30 25 28 30 37 47 42 29 19 9 11 14 15 19 34 30 12
20 18 16 17 24 28 31 32 26 45 48 48 45 46 44 42 38 37 39 43 45 45 43 45 43 42 36 31 25 26 27 32 35 40 43 30 19 14 13 20 20 21 38 26
22 20 21 23 19 23 36 24 25 42 55 50 51 47 45 42 38 38 47 50 47 41 39 42 42 40 35 34 28 28 27 31 30 31 27 28 30 24 20 24 25 20 31 35
26 24 26 26 17 28 42 21 29 40 58 53 55 47 49 49 43 41 44 45 44 41 44 43 40 36 39 36 33 29 28 30 28 28 26 23 21 18 21 23 23 17 21 29
30 33 25 40 26 28 45 25 37 36 64 53 49 52 52 50 48 54 55 48 43 41 43 41 37 39 44 47 45 43 42 37 36 33 28 26 24 21 18 16 12 11 19 25
21 26 29 40 36 27 50 33 37 38 59 56 51 52 55 56 52 49 48 45 42 51 52 51 47 49 52 54 55 54 47 45 43 36 33 29 29 26 19 16 18 17 16 15
27 24 27 44 52 34 45 47 42 43 50 56 58 57 58 60 60 56 57 58 59 63 63 60 61 63 62 62 59 60 58 54 52 49 41 39 36 29 30 30 26 20 17 15
32 30 29 38 52 54 44 53 53 50 46 58 60 60 61 63 64 65 66 67 70 72 74 74 75 74 74 73 71 66 65 65 60 58 49 48 41 36 31 27 23 20 16 15
26 32 27 32 42 52 59 52 55 53 57 60 58 58 61 61 64 67 70 72 74 77 80 80 81 81 84 81 81 79 74 71 68 65 58 55 47 40 33 28 24 21 16 11
Wind_Direction_500mb
280 295 330 295 298 289 262 236 227 281 263 269 238 254 270 292 303 28 67 68 50 32 16 0 337 318 306 306 297 291 286 285 287 284 276 270 269 272 276 277 279 282 285 288
263 268 282 286 266 261 263 256 264 265 272 276 308 28 68 66 60 50 35 20 5 355 343 335 327 320 314 310 303 299 298 296 294 290 284 281 279 276 274 272 272 269 271 277
255 47 344 298 256 249 250 246 249 259 299 331 15 44 79 65 49 37 18 360 351 348 339 330 323 319 309 305 305 303 301 300 297 292 286 283 281 276 272 271 271 269 267 266
242 44 215 247 315 280 252 84 79 80 29 7 314 9 82 44 24 7 352 346 338 328 320 316 311 307 306 304 302 300 298 297 295 291 286 281 277 274 273 273 271 271 270 273
198 200 299 302 36 3 348 102 21 37 350 4 352 338 222 356 350 339 337 334 326 322 317 314 314 310 304 300 300 300 300 299 299 298 294 290 287 284 276 269 272 271 274 279
176 187 226 234 355 321 131 255 343 355 359 348 3 350 263 333 325 326 325 322 319 314 315 309 305 303 303 302 303 302 304 301 294 290 285 280 274 273 275 272 273 270 271 274
208 229 268 260 315 76 182 237 319 310 351 340 305 262 308 316 317 317 314 317 313 309 305 303 303 307 307 306 305 306 304 302 299 298 297 289 287 287 283 275 274 275 271 265
159 220 266 355 322 163 213 232 220 333 317 314 312 312 316 312 312 318 318 313 308 304 304 307 309 311 309 307 310 308 305 302 300 300 296 290 289 282 279 279 274 272 270 261
192 219 244 316 239 225 275 262 263 287 305 311 306 312 312 312 318 317 310 306 306 308 309 310 313 314 311 311 311 310 306 303 302 301 299 294 284 282 276 280 275 259 265 251
166 252 250 257 205 268 278 289 288 295 302 294 305 309 311 316 313 307 307 310 313 314 313 313 316 314 311 316 314 312 306 302 302 300 300 295 285 271 268 271 266 257 256 244
254 264 334 189 316 286 292 285 281 292 288 292 307 315 314 312 310 312 313 315 317 316 314 313 315 316 320 317 315 308 306 304 303 302 300 296 286 270 263 260 252 248 246 248
237 207 233 251 277 288 298 299 297 297 291 319 314 315 313 313 317 319 319 318 318 317 315 317 321 318 318 318 314 308 306 307 306 299 295 290 283 273 262 254 241 230 215 210
254 255 236 269 277 296 300 313 338 339 321 321 319 321 322 322 321 320 320 321 319 319 320 320 319 317 322 320 317 313 309 306 305 301 292 284 281 272 259 261 229 229 222 220
224 222 253 264 288 326 23 347 342 328 329 327 325 322 322 322 322 325 324 323 323 322 322 323 321 321 326 322 320 319 317 312 308 305 301 285 273 260 256 250 244 225 230 228
228 285 292 302 24 8 356 345 340 338 334 327 325 327 328 326 326 325 327 327 326 326 327 326 327 330 331 329 327 329 328 328 320 312 307 293 276 273 237 231 219 225 208 219
238 269 81 20 4 360 351 344 346 344 335 334 332 331 329 327 327 328 331 333 332 331 332 332 334 337 337 338 333 339 341 334 330 327 312 296 271 261 222 228 228 236 224 198
333 7 32 18 22 30 12 359 355 345 341 338 337 333 331 330 331 335 337 338 336 338 339 340 340 346 348 340 341 349 354 2 355 348 333 310 274 230 213 217 206 190 214 197
94 63 48 34 41 21 6 359 354 350 352 347 341 339 338 338 339 339 342 343 347 356 359 354 354 349 352 354 357 0 14 17 3 4 15 15 340 186 199 205 209 196 148 182
63 52 40 42 29 19 8 4 359 3 357 352 349 349 351 351 348 349 353 360 2 360 5 2 5 4 9 11 7 19 20 25 23 27 33 36 64 134 161 181 185 202 194 157
43 48 57 35 17 18 15 7 9 9 359 357 3 5 6 6 3 4 13 18 11 4 360 8 10 15 18 21 22 31 27 33 34 35 38 44 62 104 136 148 153 169 184 158
71 58 53 42 29 22 15 13 12 8 6 11 14 15 16 18 17 16 21 22 18 15 16 20 17 21 21 21 25 38 35 38 38 43 52 42 54 72 96 136 140 150 184 189
59 61 56 33 37 26 20 38 12 13 16 23 20 24 28 24 29 38 34 26 22 23 28 27 27 27 32 33 38 47 46 46 49 51 56 71 80 75 79 116 135 139 169 190
69 64 61 42 44 38 32 45 25 18 22 29 30 31 37 34 31 35 38 38 36 39 42 39 40 43 44 47 50 50 50 45 45 49 52 60 77 93 107 113 116 106 125 158
81 66 65 47 52 49 37 51 34 27 26 37 40 41 44 41 46 53 55 54 54 55 53 51 46 50 50 52 52 52 53 52 52 57 61 66 75 80 90 121 123 129 117 118
84 83 67 52 54 60 43 52 51 40 30 43 46 50 55 56 52 53 60 62 62 61 60 59 57 54 53 54 53 51 50 52 53 57 61 66 77 79 78 86 102 125 125 127
77 79 74 59 55 54 51 49 55 51 43 40 47 51 55 60 63 62 63 64 65 64 63 61 60 59 56 55 55 54 54 53 55 60 63 66 74 75 78 81 91 108 123 135
98 77 81 70 56 53 52 53 54 53 52 47 53 52 55 58 61 63 64 64 64 65 65 64 63 61 60 58 57 57 57 57 56 57 58 59 66 70 74 76 79 80 94 121
Wind_Speed_850mb
5 9 7 11 21 24 20 14 17 15 30 16 19 23 43 47 36 15 32 26 20 21 18 16 16 15 21 26 29 31 35 38 42 43 50 60 65 71 74 74 74 72 71 66
5 13 16 19 27 29 32 30 30 32 41 25 24 9 30 35 39 37 35 33 33 34 34 36 40 45 50 54 58 63 67 71 71 72 74 76 76 74 73 73 71 70 73 77
7 6 12 17 14 13 15 21 17 28 7 7 14 14 18 32 31 30 32 38 41 38 36 38 45 51 59 66 69 74 77 78 79 79 78 78 77 74 75 75 74 74 71 67
5 5 5 12 16 19 19 8 8 14 9 9 10 9 23 32 33 32 37 43 35 35 44 53 62 69 72 73 74 72 72 75 77 79 81 78 75 78 78 76 75 77 73 72
4 6 11 13 6 8 7 2 3 3 7 11 25 16 17 32 46 44 46 43 37 48 60 66 68 64 63 66 72 82 94 106 111 103 92 93 94 91 91 87 88 89 88 82
6 7 10 11 8 11 2 6 7 8 7 5 11 7 8 48 57 57 47 43 56 65 65 64 60 64 77 91 107 116 114 98 91 90 89 87 88 82 77 81 80 85 90 88
14 8 10 9 14 3 3 7 27 20 3 11 4 9 38 51 47 38 50 61 60 59 62 62 73 94 107 112 107 92 82 83 77 72 64 63 66 59 66 74 68 61 66 61
4 3 13 10 13 4 6 12 8 4 11 20 29 36 36 40 54 63 53 58 59 60 75 90 99 103 101 90 81 76 73 72 73 69 64 67 65 59 59 60 63 65 63 59
11 10 8 12 7 6 7 8 13 17 21 29 29 39 48 57 60 56 57 53 68 84 97 105 101 82 79 80 74 71 71 70 68 66 63 60 60 58 51 52 51 53 44 45
3 8 16 9 6 10 18 20 19 22 34 28 38 48 55 53 55 47 59 76 88 99 105 101 84 75 73 72 67 64 66 66 63 62 60 56 50 48 49 49 44 38 40 43
8 8 14 11 16 20 14 17 27 38 33 36 41 45 45 41 50 65 79 91 96 93 88 85 78 74 70 63 58 58 61 62 61 60 58 52 44 44 41 42 43 45 47 39
9 12 15 28 20 19 27 36 34 39 29 29 29 28 38 53 68 80 91 91 85 77 77 77 76 73 64 56 51 55 60 60 60 60 58 51 42 41 35 38 42 29 32 20
26 20 20 22 25 20 30 42 19 13 14 27 31 40 54 68 80 84 81 76 71 72 72 73 69 66 57 52 53 55 57 59 54 55 51 49 41 37 38 29 33 32 31 30
13 12 13 20 19 28 13 15 15 18 25 29 41 53 66 76 80 75 70 65 66 67 66 62 62 59 53 52 52 51 49 48 48 47 43 40 40 38 31 33 29 30 33 37
8 6 21 22 10 21 18 19 25 29 34 45 54 63 73 76 73 68 62 61 61 60 58 56 56 55 49 47 45 46 47 39 40 43 39 34 32 30 32 37 21 34 27 26
16 16 2 13 20 21 17 25 29 32 41 51 62 69 68 62 62 60 57 55 57 58 54 53 53 51 46 42 42 43 44 41 48 45 40 31 25 25 28 30 26 26 24 24
12 15 17 20 17 13 18 22 29 37 46 56 62 62 56 55 55 54 52 48 44 43 43 46 52 47 43 37 37 39 44 45 49 44 35 21 15 18 25 30 31 14 20 19
17 18 19 16 15 16 22 29 37 43 47 55 56 50 47 46 50 51 48 43 41 40 41 45 43 41 36 33 33 32 38 39 55 36 20 11 3 12 21 23 26 29 19 20
17 20 19 17 19 25 28 33 40 37 49 56 48 44 41 40 41 41 39 40 47 53 53 47 43 38 36 30 25 28 30 37 47 42 29 19 9 11 14 15 19 34 30 12
20 18 16 17 24 28 31 32 26 45 48 48 45 46 44 42 38 37 39 43 45 45 43 45 43 42 36 31 25 26 27 32 35 40 43 30 19 14 13 20 20 21 38 26
22 20 21 23 19 23 36 24 25 42 55 50 51 47 45 42 38 38 47 50 47 41 39 42 42 40 35 34 28 28 27 31 30 31 27 28 30 24 20 24 25 20 31 35
26 24 26 26 17 28 42 21 29 40 58 53 55 47 49 49 43 41 44 45 44 41 44 43 40 36 39 36 33 29 28 30 28 28 26 23 21 18 21 23 23 17 21 29
30 33 25 40 26 28 45 25 37 36 64 53 49 52 52 50 48 54 55 48 43 41 43 41 37 39 44 47 45 43 42 37 36 33 28 26 24 21 18 16 12 11 19 25
21 26 29 40 36 27 50 33 37 38 59 56 51 52 55 56 52 49 48 45 42 51 52 51 47 49 52 54 55 54 47 45 43 36 33 29 29 26 19 16 18 17 16 15
27 24 27 44 52 34 45 47 42 43 50 56 58 57 58 60 60 56 57 58 59 63 63 60 61 63 62 62 59 60 58 54 52 49 41 39 36 29 30 30 26 20 17 15
32 30 29 38 52 54 44 53 53 50 46 58 60 60 61 63 64 65 66 67 70 72 74 74 75 74 74 73 71 66 65 65 60 58 49 48 41 36 31 27 23 20 16 15
26 32 27 32 42 52 59 52 55 53 57 60 58 58 61 61 64 67 70 72 74 77 80 80 81 81 84 81 81 79 74 71 68 65 58 55 47 40 33 28 24 21 16 11
Wind_Direction_850mb
280 295 330 295 298 289 262 236 227 281 263 269 238 254 270 292 303 28 67 68 50 32 16 0 337 318 306 306 297 291 286 285 287 284 276 270 269 272 276 277 279 282 285 288
263 268 282 286 266 261 263 256 264 265 272 276 308 28 68 66 60 50 35 20 5 355 343 335 327 320 314 310 303 299 298 296 294 290 284 281 279 276 274 272 272 269 271 277
255 47 344 298 256 249 250 246 249 259 299 331 15 44 79 65 49 37 18 360 351 348 339 330 323 319 309 305 305 303 301 300 297 292 286 283 281 276 272 271 271 269 267 266
242 44 215 247 315 280 252 84 79 80 29 7 314 9 82 44 24 7 352 346 338 328 320 316 311 307 306 304 302 300 298 297 295 291 286 281 277 274 273 273 271 271 270 273
198 200 299 302 36 3 348 102 21 37 350 4 352 338 222 356 350 339 337 334 326 322 317 314 314 310 304 300 300 300 300 299 299 298 294 290 287 284 276 269 272 271 274 279
176 187 226 234 355 321 131 255 343 355 359 348 3 350 263 333 325 326 325 322 319 314 315 309 305 303 303 302 303 302 304 301 294 290 285 280 274 273 275 272 273 270 271 274
208 229 268 260 315 76 182 237 319 310 351 340 305 262 308 316 317 317 314 317 313 309 305 303 303 307 307 306 305 306 304 302 299 298 297 289 287 287 283 275 274 275 271 265
159 220 266 355 322 163 213 232 220 333 317 314 312 312 316 312 312 318 318 313 308 304 304 307 309 311 309 307 310 308 305 302 300 300 296 290 289 282 279 279 274 272 270 261
192 219 244 316 239 225 275 262 263 287 305 311 306 312 312 312 318 317 310 306 306 308 309 310 313 314 311 311 311 310 306 303 302 301 299 294 284 282 276 280 275 259 265 251
166 252 250 257 205 268 278 289 288 295 302 294 305 309 311 316 313 307 307 310 313 314 313 313 316 314 311 316 314 312 306 302 302 300 300 295 285 271 268 271 266 257 256 244
254 264 334 189 316 286 292 285 281 292 288 292 307 315 314 312 310 312 313 315 317 316 314 313 315 316 320 317 315 308 306 304 303 302 300 296 286 270 263 260 252 248 246 248
237 207 233 251 277 288 298 299 297 297 291 319 314 315 313 313 317 319 319 318 318 317 315 317 321 318 318 318 314 308 306 307 306 299 295 290 283 273 262 254 241 230 215 210
254 255 236 269 277 296 300 313 338 339 321 321 319 321 322 322 321 320 320 321 319 319 320 320 319 317 322 320 317 313 309 306 305 301 292 284 281 272 259 261 229 229 222 220
224 222 253 264 288 326 23 347 342 328 329 327 325 322 322 322 322 325 324 323 323 322 322 323 321 321 326 322 320 319 317 312 308 305 301 285 273 260 256 250 244 225 230 228
228 285 292 302 24 8 356 345 340 338 334 327 325 327 328 326 326 325 327 327 326 326 327 326 327 330 331 329 327 329 328 328 320 312 307 293 276 273 237 231 219 225 208 219
238 269 81 20 4 360 351 344 346 344 335 334 332 331 329 327 327 328 331 333 332 331 332 332 334 337 337 338 333 339 341 334 330 327 312 296 271 261 222 228 228 236 224 198
333 7 32 18 22 30 12 359 355 345 341 338 337 333 331 330 331 335 337 338 336 338 339 340 340 346 348 340 341 349 354 2 355 348 333 310 274 230 213 217 206 190 214 197
94 63 48 34 41 21 6 359 354 350 352 347 341 339 338 338 339 339 342 343 347 356 359 354 354 349 352 354 357 0 14 17 3 4 15 15 340 186 199 205 209 196 148 182
63 52 40 42 29 19 8 4 359 3 357 352 349 349 351 351 348 349 353 360 2 360 5 2 5 4 9 11 7 19 20 25 23 27 33 36 64 134 161 181 185 202 194 157
43 48 57 35 17 18 15 7 9 9 359 357 3 5 6 6 3 4 13 18 11 4 360 8 10 15 18 21 22 31 27 33 34 35 38 44 62 104 136 148 153 169 184 158
71 58 53 42 29 22 15 13 12 8 6 11 14 15 16 18 17 16 21 22 18 15 16 20 17 21 21 21 25 38 35 38 38 43 52 42 54 72 96 136 140 150 184 189
59 61 56 33 37 26 20 38 12 13 16 23 20 24 28 24 29 38 34 26 22 23 28 27 27 27 32 33 38 47 46 46 49 51 56 71 80 75 79 116 135 139 169 190
69 64 61 42 44 38 32 45 25 18 22 29 30 31 37 34 31 35 38 38 36 39 42 39 40 43 44 47 50 50 50 45 45 49 52 60 77 93 107 113 116 106 125 158
81 66 65 47 52 49 37 51 34 27 26 37 40 41 44 41 46 53 55 54 54 55 53 51 46 50 50 52 52 52 53 52 52 57 61 66 75 80 90 121 123 129 117 118
84 83 67 52 54 60 43 52 51 40 30 43 46 50 55 56 52 53 60 62 62 61 60 59 57 54 53 54 53 51 50 52 53 57 61 66 77 79 78 86 102 125 125 127
77 79 74 59 55 54 51 49 55 51 43 40 47 51 55 60 63 62 63 64 65 64 63 61 60 59 56 55 55 54 54 53 55 60 63 66 74 75 78 81 91 108 123 135
98 77 81 70 56 53 52 53 54 53 52 47 53 52 55 58 61 63 64 64 64 65 65 64 63 61 60 58 57 57 57 57 56 57 58 59 66 70 74 76 79 80 94 121